Regional Weather Roundup
Issued by NWS

Home | Current Version | Previous Version | Text Only | Print | Product List | Glossary Off
Versions: 1 2 3 4 5 6 7 8 9 10 11 12 13 14 15 16 17 18 19 20 21 22 23 24 25 26 27 28 29 30 31 32 33 34 35 36 37 38 39 40 41 42 43 44 45 46 47 48 49 50

417
ASUS43 KLSX 261310
RWRMO

WEATHER SUMMARY FOR MISSOURI
NATIONAL WEATHER SERVICE SPRINGFIELD MO
800 AM CDT MON SEP 26 2016

NOTE: "FAIR" INDICATES FEW OR NO CLOUDS BELOW 12,000 FEET WITH NO
       SIGNIFICANT WEATHER AND/OR OBSTRUCTIONS TO VISIBILITY.
       CURRENT SKY AND/OR WEATHER CONDITIONS ARE NOT AVAILABLE FOR
       CHILLICOTHE AND FARMINGTON.

MOZ001>031-035>038-043-044-053-054-261400-
...NORTHERN AND WESTERN MISSOURI...

CITY           SKY/WX    TMP DP  RH WIND       PRES   REMARKS
KANSAS CTY INT CLEAR     51  43  74 W7        30.25S
KANSAS C DTWN  CLEAR     54  45  71 NW3       30.25S
LEE`S SUMMIT   CLEAR     52  48  86 CALM      30.25S
ST JOSEPH      CLEAR     49  45  86 SW3       30.26S
CHILLICOTHE      N/A     53  46  77 NW3       30.24R
KIRKSVILLE     MOSUNNY   50  44  80 W7        30.20R

$$
MOZ066>068-077>081-088>096-101>105-261400-
...SOUTHWEST MISSOURI...

CITY           SKY/WX    TMP DP  RH WIND       PRES   REMARKS
SPRINGFIELD    CLOUDY    58  55  90 NW6       30.23R
JOPLIN         CLOUDY    53  52  96 CALM      30.26R
BRANSON        PTSUNNY   57  57 100 NW5       30.23R

$$
MOZ032>034-039>042-045>050-055>058-069>072-261400-
...CENTRAL MISSOURI...

CITY           SKY/WX    TMP DP  RH WIND       PRES   REMARKS
COLUMBIA       SUNNY     56  52  86 NW7       30.21R
JEFFERSON CITY SUNNY     57  54  89 NW3       30.21R
ROLLA          CLOUDY    57  55  93 NW9       30.19S
SEDALIA        CLEAR     55  50  83 NW3       30.24R
WHITEMAN AFB   PTCLDY    54  52  93 CALM      30.23R
OSAGE BEACH    MOSUNNY   55  53  93 N5        30.23R

$$
MOZ051-052-059>065-261400-
...EAST CENTRAL MISSOURI...

CITY           SKY/WX    TMP DP  RH WIND       PRES   REMARKS
ST LOUIS INTL  CLOUDY    62  55  77 W7        30.17R
SPIRIT OF STL  CLOUDY    60  57  89 W5        30.17R
ST CHARLES     CLOUDY    60  57  89 NW8       30.16R

$$
MOZ072>076-082>087-097>100-106>115-261400-
...SOUTH CENTRAL AND SOUTHEAST MISSOURI...

CITY           SKY/WX    TMP DP  RH WIND       PRES   REMARKS
CAPE GIRARDEAU CLOUDY    61  51  70 N17G24    30.16R
FARMINGTON     CLOUDY    58  55  90 NW6       30.18R
WEST PLAINS    CLOUDY    58  54  86 N6        30.21R

$$




USA.gov is the U.S. government's official web portal to all federal, state and local government web resources and services.